Simultaneous Nadir Overpasses (SNOs) Predictions

Prediction of SNOs between AQUA and METOP-B Satellite Orbit:

Table of predicted SNOs for the next 14.0 days since TLE Epoch: 10/28/2023
Index Date (AQUA) Time (AQUA) Lat,Lon (AQUA) SZA (AQUA ) Date (METOP-B) Time (METOP-B) Lat,Lon (METOP-B) SZA (METOP-B ) Distance(km) Time Diff (sec)
1 10/30/2023 02:37:32 74.91, 137.04 88.49 10/30/2023 02:36:37 74.92, 137.03 88.50 0.99 55
2 10/30/2023 03:26:56 -74.98, -55.47 91.44 10/30/2023 03:27:18 -74.96, -55.53 91.46 2.51 22
3 11/01/2023 19:39:45 -74.95, 61.43 90.60 11/01/2023 19:38:57 -74.94, 61.48 90.61 2.18 48
4 11/01/2023 20:29:10 74.97,-130.98 89.44 11/01/2023 20:29:36 74.97,-131.08 89.44 2.97 26
5 11/04/2023 12:41:58 74.97, -14.14 90.27 11/04/2023 12:41:15 74.94, -14.11 90.24 3.61 43
6 11/04/2023 13:31:22 -75.02, 153.38 89.67 11/04/2023 13:31:55 -75.03, 153.47 89.66 2.79 33
7 11/07/2023 05:44:08 -74.98, -89.66 88.91 11/07/2023 05:43:34 -74.98, -89.58 88.90 2.55 34
8 11/07/2023 06:33:33 75.01, 77.89 91.14 11/07/2023 06:34:13 75.01, 77.84 91.15 1.47 40
9 11/09/2023 22:46:17 74.99,-165.20 91.90 11/09/2023 22:45:50 75.00,-165.11 91.91 2.84 27
10 11/09/2023 23:35:41 -75.03, 2.34 88.06 11/09/2023 23:36:31 -75.05, 2.35 88.04 1.39 50



Historial Predications of SNOs between AQUA and METOP-B
